Location: Hradec Kralove
(50.2170°N, 15.8330°E)
Time: 08:50:31
(UTC+02:00)

X-37B - Visible Passes

Search period start: 28 September 2020 00:00
Search period end: 08 October 2020 00:00
Orbit: 386 x 387 km, 45.0° (Epoch: 18 September)

Date Brightness Start Highest point End Pass type
(mag) Time Alt. Az. Time Alt. Az. Time Alt. Az.
03 Oct 2.9 20:14:21 10° SSW 20:15:15 14° S 20:15:15 14° S visible
04 Oct 2.9 19:17:02 10° S 19:18:07 11° SSE 19:19:13 10° SE visible
04 Oct 3.4 20:51:20 10° SW 20:51:46 13° SW 20:51:46 13° SW visible
05 Oct 2.1 19:53:09 10° SW 19:55:40 22° SSE 19:55:54 21° SSE visible
06 Oct 2.6 18:55:13 10° SSW 18:57:18 16° SSE 18:59:24 10° ESE visible
06 Oct 2.4 20:30:32 10° WSW 20:32:15 23° SSW 20:32:15 23° SSW visible
07 Oct 1.9 19:32:12 10° SW 19:34:57 27° SSE 19:36:16 20° SE visible
07 Oct 3.8 21:08:18 10° WSW 21:08:32 11° WSW 21:08:32 11° WSW visible
